{"data":{"norad_id":66864,"intl_designator":"2025-281S","name":"STARLINK-36070","alt_names":[],"object_type":"PAYLOAD","status":"ACTIVE","operator":null,"country":"US","launch_date":"2025-12-02","launch_site_code":"AFETR","launch_vehicle":null,"mission":null,"orbit_class":"UNKNOWN","rcs_meters":null,"size_class":null,"mass_kg":null,"dimensions":null,"purposes":["comms"],"wikipedia_slug":null,"has_3d_model":false,"image_url":null,"decayed_at":null,"tle_current":{"epoch":"2026-09-20T20:59:46.920768Z","epoch_age_seconds":52137,"freshness":"FRESH","line1":"1 66864U 25281S   26263.87484862  .00012575  00000+0  46569-3 0  9996","line2":"2 66864  43.0011 321.4244 0001504 267.9171  92.1508 15.27582366 46037","mean_motion":15.27582366,"eccentricity":0.0001504,"inclination_deg":43.0011,"raan_deg":321.4244,"arg_perigee_deg":267.9171,"mean_anomaly_deg":92.1508,"bstar":0.00046569,"rev_number":4603,"period_min":94.266602708348,"perigee_km":482.01009007032,"apogee_km":484.07393271695,"semimajor_km":6861.1790113936,"source":"CELESTRAK","updated_at":"2026-09-21T09:00:36.029057Z"}}}